カタリナ彗星

257P/Catalina (2020)

English version
Home page
Updated on August 15, 2020

---------------------------------------------------------------------

・ プロフィール

・ 写真集

・ 軌道要素

Epoch 2020 Sept. 28.0 TT = JDT 2459120.5                                        
T 2020 Sept. 10.73947 TT                                Rudenko                 
q   2.1424597            (2000.0)            P               Q                  
n   0.13500323     Peri.  117.64819     +0.79758590     +0.58135602             
a   3.7633385      Node   207.73792     -0.59862552     +0.79566247             
e   0.4307024      Incl.   20.22192     +0.07419040     +0.17013646             
P   7.30                                                                        
From 1118 observations 2005 Apr. 17-2020 July 9, mean residual 0".6.            
     Nongravitational parameters A1 = -0.05, A2 = -0.0285.                      

・ 星図

・ 光度変化

        m1 = 12.5 + 5 logΔ + 10.0 log r

---------------------------------------------------------------------

軌道要素はM.P.E.C. 2020-N31に掲載されたものです。
星図はステラナビゲータ Ver.10 (アストロアーツ) で作成したものです。
光度グラフはComet for Windowsで作成したものです。

---------------------------------------------------------------------

Copyright(C) Seiichi Yoshida (comet@aerith.net). All rights reserved.